Date String (YYYY-MM-DD hh:mm:ss) UTC,Instrument flags,absolute air pressure of the measurement (hPa),sample flow rate (lpm),inlet stack bypass flow (lpm),air temperature of the measurement (°C),ambient temperature measured by the external sensor (°C),aerosol sample conditioner tube jacket temperature (°C),OPC LED temperature (°C),internal box temperature (°C),relative humidity of the measurement (%),span deviation,mass concentration of particles derived from Lorenz-Mie calculation of OPC scattering (μg/m³),mass concentration of particles derived from Lorenz-Mie calculation of OPC scattering (μg/m³),mass concentration of particles derived from Lorenz-Mie calculation of OPC scattering (μg/m³)
DateTimeUTC,F1_M11,P_M11,Q1_M11,Q2_M11,T1_M11,T2_M11,T3_M11,T4_M11,T5_M11,U1_M11,ZSPAN_M11,X0_M11,X2_M11,X1_M11
2023-11-13 14:00:00,SystemResetWarning,0835.8,5.00,000.00,023.2,022.1,000.0,031.6,024.6,9.6,0000.0,0012.17,0004.27,0003.33
2023-11-13 14:01:00,SystemResetWarning,0835.7,5.00,000.00,023.2,022.1,000.0,031.6,024.6,9.7,0000.0,0012.47,0004.22,0003.32
2023-11-13 14:02:00,SystemResetWarning,0835.8,5.00,000.00,023.2,022.1,000.0,031.6,024.6,9.7,0000.0,0012.27,0004.21,0003.32
2023-11-13 14:03:00,SystemResetWarning,0835.8,4.99,000.00,023.2,022.1,000.0,031.6,024.6,9.7,0000.0,0012.65,0004.18,0003.31
2023-11-13 14:04:00,SystemResetWarning,0835.9,5.00,000.00,023.2,022.1,000.0,031.6,024.6,9.8,0000.0,0012.72,0004.13,0003.30
2023-11-13 14:05:00,SystemResetWarning,0835.8,4.99,000.00,023.2,022.2,000.0,031.6,024.6,9.8,0000.0,0011.98,0004.10,0003.29
2023-11-13 14:06:00,SystemResetWarning,0835.8,5.00,000.00,023.2,022.2,000.0,031.6,024.6,9.8,0000.0,0011.53,0004.08,0003.29
2023-11-13 14:07:00,SystemResetWarning,0835.8,5.00,000.00,023.1,022.2,000.0,031.6,024.6,9.9,0000.0,0011.43,0004.06,0003.27
2023-11-13 14:08:00,SystemResetWarning,0835.8,5.00,000.00,023.1,022.2,000.0,031.6,024.6,9.9,0000.0,0010.17,0003.98,0003.25
2023-11-13 14:09:00,SystemResetWarning,0835.8,5.00,000.00,023.1,022.2,000.0,031.5,024.6,9.9,0000.0,0009.82,0003.95,0003.23
2023-11-13 14:10:00,SystemResetWarning,0835.8,5.00,000.00,023.1,022.2,000.0,031.5,024.6,9.9,0000.0,0010.22,0003.96,0003.22
2023-11-13 14:11:00,SystemResetWarning,0835.8,5.00,000.00,023.1,022.2,000.0,031.5,024.6,9.9,0000.0,0010.21,0003.92,0003.19
2023-11-13 14:12:00,SystemResetWarning,0835.9,5.00,000.00,023.1,022.2,000.0,031.5,024.6,9.9,0000.0,0009.62,0003.86,0003.15
2023-11-13 14:13:00,SystemResetWarning,0835.9,5.00,000.00,023.1,022.2,000.0,031.5,024.6,9.9,0000.0,0009.47,0003.78,0003.11
2023-11-13 14:14:00,SystemResetWarning,0835.9,5.00,000.00,023.1,022.2,000.0,031.5,024.6,9.9,0000.0,0008.61,0003.70,0003.04
2023-11-13 14:15:00,SystemResetWarning,0835.9,5.00,000.00,023.2,022.2,000.0,031.5,024.6,9.8,0000.0,0008.68,0003.66,0002.98
2023-11-13 14:16:00,SystemResetWarning,0835.9,5.00,000.00,023.1,022.2,000.0,031.5,024.6,9.8,0000.0,0008.73,0003.64,0002.91
2023-11-13 14:17:00,SystemResetWarning,0836.0,5.00,000.00,023.1,022.2,000.0,031.5,024.6,9.8,0000.0,0008.43,0003.59,0002.84
2023-11-13 14:18:00,SystemResetWarning,0836.2,5.00,000.00,023.2,022.2,000.0,031.5,024.6,9.8,0000.0,0008.85,0003.57,0002.78
2023-11-13 14:19:00,SystemResetWarning,0836.2,5.00,000.00,023.2,022.2,000.0,031.5,024.6,9.9,0000.0,0009.01,0003.59,0002.72
2023-11-13 14:20:00,SystemResetWarning,0836.1,5.00,000.00,023.2,022.2,000.0,031.5,024.6,9.8,0000.0,0008.98,0003.54,0002.64
2023-11-13 14:21:00,SystemResetWarning,0836.1,5.00,000.00,023.2,022.2,000.0,031.5,024.6,9.7,0000.0,0008.97,0003.42,0002.56
2023-11-13 14:22:00,SystemResetWarning,0836.1,5.00,000.00,023.2,022.2,000.0,031.5,024.6,9.8,0000.0,0008.75,0003.35,0002.50
2023-11-13 14:23:00,SystemResetWarning,0836.1,5.00,000.00,023.2,022.2,000.0,031.5,024.6,9.8,0000.0,0009.10,0003.39,0002.50
2023-11-13 14:24:00,SystemResetWarning,0836.1,5.00,000.00,023.1,022.2,000.0,031.5,024.6,9.8,0000.0,0009.38,0003.41,0002.52
2023-11-13 14:25:00,SystemResetWarning,0836.1,5.00,000.00,023.1,022.2,000.0,031.5,024.6,9.8,0000.0,0009.61,0003.50,0002.59
2023-11-13 14:26:00,SystemResetWarning,0836.1,5.00,000.00,023.1,022.2,000.0,031.5,024.6,9.9,0000.0,0009.83,0003.54,0002.66
2023-11-13 14:27:00,SystemResetWarning,0836.1,5.00,000.00,023.1,022.2,000.0,031.5,024.6,9.9,0000.0,0010.14,0003.60,0002.76
2023-11-13 14:28:00,SystemResetWarning,0836.1,5.00,000.00,023.1,022.2,000.0,031.5,024.6,9.9,0000.0,0010.27,0003.67,0002.85
2023-11-13 14:29:00,SystemResetWarning,0836.1,5.00,000.00,023.1,022.2,000.0,031.5,024.6,9.8,0000.0,0010.11,0003.71,0002.92
2023-11-13 14:30:00,SystemResetWarning,0836.2,4.99,000.00,023.1,022.2,000.0,031.5,024.5,9.9,0000.0,0010.01,0003.75,0003.01
2023-11-13 14:31:00,SystemResetWarning,0836.1,5.00,000.00,023.1,022.2,000.0,031.5,024.6,10.1,0000.0,0010.55,0003.82,0003.09
2023-11-13 14:32:00,SystemResetWarning,0836.1,5.00,000.00,023.1,022.2,000.0,031.5,024.6,10.1,0000.0,0010.49,0003.91,0003.14
2023-11-13 14:33:00,SystemResetWarning,0836.2,5.00,000.00,023.1,022.2,000.0,031.5,024.6,10.0,0000.0,0011.18,0003.99,0003.19
2023-11-13 14:34:00,SystemResetWarning,0836.2,5.00,000.00,023.1,022.2,000.0,031.5,024.6,10.0,0000.0,0011.17,0004.03,0003.23
2023-11-13 14:35:00,SystemResetWarning,0836.2,5.00,000.00,023.1,022.2,000.0,031.5,024.6,9.9,0000.0,0011.36,0004.08,0003.27
2023-11-13 14:36:00,SystemResetWarning,0836.2,5.00,000.00,023.1,022.2,000.0,031.5,024.6,9.8,0000.0,0011.55,0004.08,0003.29
2023-11-13 14:37:00,SystemResetWarning,0836.2,4.99,000.00,023.1,022.2,000.0,031.5,024.6,9.9,0000.0,0011.50,0004.09,0003.29
2023-11-13 14:38:00,SystemResetWarning,0836.2,5.00,000.00,023.1,022.2,000.0,031.5,024.6,10.0,0000.0,0011.31,0004.12,0003.30
2023-11-13 14:39:00,SystemResetWarning,0836.2,5.00,000.00,023.1,022.2,000.0,031.5,024.6,10.1,0000.0,0011.55,0004.15,0003.31
2023-11-13 14:40:00,SystemResetWarning,0836.2,5.00,000.00,023.2,022.2,000.0,031.5,024.6,10.2,0000.0,0011.85,0004.22,0003.34
2023-11-13 14:41:00,SystemResetWarning,0836.2,5.00,000.00,023.2,022.2,000.0,031.5,024.6,10.1,0000.0,0011.70,0004.25,0003.37
2023-11-13 14:42:00,SystemResetWarning,0836.2,5.00,000.00,023.2,022.3,000.0,031.5,024.6,10.0,0000.0,0011.21,0004.26,0003.39
2023-11-13 14:43:00,SystemResetWarning,0836.1,5.00,000.00,023.2,022.3,000.0,031.5,024.6,10.0,0000.0,0010.76,0004.33,0003.42
2023-11-13 14:44:00,SystemResetWarning,0836.2,5.01,000.00,023.2,022.3,000.0,031.5,024.6,10.1,0000.0,0010.62,0004.40,0003.46
2023-11-13 14:45:00,SystemResetWarning,0836.2,5.00,000.00,023.2,022.3,000.0,031.5,024.6,10.1,0000.0,0010.73,0004.44,0003.48
2023-11-13 14:46:00,SystemResetWarning,0836.2,5.00,000.00,023.2,022.3,000.0,031.5,024.6,10.1,0000.0,0011.14,0004.44,0003.50
2023-11-13 14:47:00,SystemResetWarning,0836.2,4.99,000.00,023.2,022.3,000.0,031.5,024.6,10.2,0000.0,0010.89,0004.45,0003.52
2023-11-13 14:48:00,SystemResetWarning,0836.1,5.00,000.00,023.2,022.3,000.0,031.5,024.6,10.2,0000.0,0010.73,0004.47,0003.54
2023-11-13 14:49:00,SystemResetWarning,0836.1,5.00,000.00,023.2,022.3,000.0,031.5,024.7,10.1,0000.0,0010.59,0004.49,0003.57
2023-11-13 14:50:00,SystemResetWarning,0836.2,5.00,000.00,023.2,022.3,000.0,031.5,024.6,10.1,0000.0,0010.47,0004.49,0003.57
2023-11-13 14:51:00,SystemResetWarning,0836.2,5.00,000.00,023.2,022.3,000.0,031.5,024.6,10.1,0000.0,0010.11,0004.48,0003.57
2023-11-13 14:52:00,SystemResetWarning,0836.2,5.00,000.00,023.2,022.3,000.0,031.5,024.6,10.2,0000.0,0009.94,0004.47,0003.59
2023-11-13 14:53:00,SystemResetWarning,0836.2,5.00,000.00,023.2,022.3,000.0,031.5,024.7,10.2,0000.0,0009.97,0004.47,0003.59
2023-11-13 14:54:00,SystemResetWarning,0836.2,5.00,000.00,023.2,022.4,000.0,031.5,024.7,10.0,0000.0,0010.08,0004.48,0003.59
2023-11-13 14:55:00,SystemResetWarning,0836.2,5.00,000.00,023.2,022.4,000.0,031.5,024.7,9.8,0000.0,0010.60,0004.52,0003.60
2023-11-13 14:56:00,SystemResetWarning,0836.2,5.00,000.00,023.2,022.4,000.0,031.5,024.7,9.7,0000.0,0010.75,0004.51,0003.62
2023-11-13 14:57:00,SystemResetWarning,0836.2,4.99,000.00,023.2,022.4,000.0,031.5,024.7,9.9,0000.0,0010.17,0004.54,0003.63
2023-11-13 14:58:00,SystemResetWarning,0836.2,4.99,000.00,023.3,022.4,000.0,031.6,024.7,9.9,0000.0,0010.28,0004.57,0003.65
2023-11-13 14:59:00,SystemResetWarning,0836.2,5.00,000.00,023.3,022.4,000.0,031.6,024.8,9.8,0000.0,0010.45,0004.58,0003.66
